Location: West Cummington
(42.4920°N, 72.9680°W)
Time: 03:24:55
(UTC-05:00)

Daily predictions for brighter satellites

Satellite Brightness Start Highest point End
(mag) Time Altitude Azimuth Time Altitude Azimuth Time Altitude Azimuth
SL-16 R/B 4.2 03:23:27 24° ENE 03:23:27 24° ENE 03:26:33 10° NE
CENTAUR R/B 3.9 03:25:34 34° ENE 03:25:34 34° ENE 03:29:36 10° NE
Cosmos 2237 Rocket 4.3 03:56:33 16° NNE 03:56:33 16° NNE 03:57:42 10° NNE
ADEOS II 4.5 04:04:07 10° NNE 04:04:38 13° NNE 04:04:38 13° NNE
Cosmos 2369 Rocket 4.5 04:15:56 11° N 04:19:43 19° NE 04:23:40 10° E
Cosmos 292 Rocket 4.3 04:26:00 57° ENE 04:26:00 57° ENE 04:30:11 10° NNE
Cosmos 2181 Rocket 3.9 04:27:00 74° SW 04:27:00 74° SW 04:32:59 10° S
Cosmos 2151 Rocket 4.3 04:24:22 10° S 04:28:44 51° E 04:33:06 10° NNE
Cosmos 2219 Rocket 4.4 04:33:54 12° N 04:33:54 12° N 04:34:27 10° N
Lacrosse 5 rocket 3.9 04:39:23 12° NNE 04:39:23 12° NNE 04:39:58 10° NNE
USA 32 4.2 04:36:41 20° N 04:40:24 70° E 04:45:36 10° SSE
Cosmos 2297 4.1 04:42:46 47° SSW 04:42:46 47° SSW 04:47:09 10° S
Cosmos 2333 Rocket 4.1 04:45:24 15° N 04:45:24 15° N 04:46:42 10° N
Cosmos 1536 Rocket 3.7 04:47:32 51° NNE 04:48:33 72° E 04:52:56 10° SSE
Meteor 1-14 Rocket 4.4 04:52:16 49° NW 04:52:16 49° NW 04:56:44 10° N
Celestis-02/Orion 38 4.4 04:46:14 10° SSE 04:51:24 77° WSW 04:52:31 56° NW
USA 215 3.2 04:46:11 10° NE 04:52:45 88° SE 04:56:45 26° SW
ATLAS CENTAUR Rocket 4.3 04:47:53 21° WSW 04:53:09 30° SSW 04:57:44 10° SE
SL-16 R/B 2.4 05:05:26 45° WNW 05:05:43 45° WNW 05:11:10 10° NNE
Cosmos 1680 Rocket 3.6 05:06:01 48° WNW 05:06:06 48° WNW 05:11:10 10° N
Tiangong 2 1.7 05:06:52 55° E 05:06:52 55° E 05:09:25 10° E
Okean 1 3.1 05:06:19 64° NW 05:06:52 77° W 05:10:53 10° S
SJ-6F 4.2 05:03:18 10° N 05:07:22 75° WNW 05:11:26 10° SSW
Okean 1 Rocket 4.0 05:04:25 10° SSE 05:08:40 50° E 05:12:55 10° NNE
Cosmos 921 Rocket 3.0 05:08:05 55° WNW 05:08:49 65° WSW 05:13:16 10° S
Cosmos 1943 Rocket 4.3 05:05:58 10° N 05:10:03 21° NE 05:14:06 10° E
Meteor 1-25 Rocket 4.3 05:05:09 10° SSW 05:10:54 59° WNW 05:16:40 10° N
Abrixas rocket 4.4 05:11:32 14° SSW 05:13:45 25° SE 05:16:36 10° E
CENTAUR R/B 3.1 05:12:47 34° WNW 05:14:00 37° NW 05:20:27 10° NNE
COSMO-SKYMED 1 2.4 05:10:14 10° S 05:14:33 78° WSW 05:17:08 24° NNW
Cosmos 1812 4.1 05:17:05 25° SW 05:17:05 25° SW 05:19:01 10° SSW
Cosmos 1602 4.2 05:12:52 10° S 05:16:45 62° E 05:20:41 10° NNE
Nadezhda 3 Rocket 4.3 05:12:10 10° N 05:18:32 71° E 05:24:53 10° SSE
Cosmos 1238 Rocket 3.7 05:17:54 37° WNW 05:19:01 43° W 05:24:19 10° SSW
Meteor 1-13 Rocket 4.4 05:13:18 10° N 05:19:17 80° E 05:25:14 10° SSE
Okean 1-7 Rocket 4.2 05:15:09 10° N 05:19:29 55° E 05:23:47 10° SSE
Cosmos 1346 Rocket 2.7 05:23:01 42° NW 05:24:01 56° W 05:27:51 10° S
Cosmos 2112 Rocket 4.4 05:23:28 29° WSW 05:25:22 38° WNW 05:30:14 10° N
NOAA 6 4.1 05:21:40 10° N 05:26:40 54° WNW 05:31:38 10° SSW
Cosmos 1633 2.5 05:28:47 10° S 05:32:26 86° E 05:36:06 10° N
Radarsat Rocket 4.4 05:29:13 10° N 05:36:06 68° WNW 05:43:54 10° SSW
Cosmos 2237 Rocket 4.0 05:38:25 13° NNW 05:38:25 13° NNW 05:39:57 10° NNW
Cosmos 2341 Rocket 4.2 05:32:11 10° S 05:38:28 77° E 05:44:44 10° N
Cosmos 2074 Rocket 4.3 05:33:00 10° SW 05:38:53 42° WNW 05:44:48 10° N
Cosmos 1300 Rocket 3.5 05:34:33 10° SSW 05:38:55 59° W 05:43:17 10° N
PSLV R/B 3.8 05:38:42 30° WSW 05:39:58 48° SSW 05:43:14 10° ESE
Meteor 1-28 Rocket 3.1 05:36:23 10° S 05:40:09 73° WSW 05:43:59 10° NNW
CZ-4 R/B 2.8 05:36:25 10° NNE 05:40:10 39° E 05:43:51 10° SSE
Lacrosse 5 2.1 05:37:17 10° SW 05:42:23 75° SE 05:47:29 10° NE
Meteor 2-4 Rocket 3.8 05:43:06 10° N 05:48:37 82° E 05:54:15 10° SSE
USA 129 1.4 05:46:58 10° S 05:48:58 80° WSW 05:49:37 38° NNW
Lacrosse 4 Rocket 3.8 05:48:21 10° N 05:51:16 18° NE 05:54:07 10° E
Cosmos 192 4.3 05:47:19 10° SSW 05:52:10 62° WNW 05:57:02 10° NNE
Cosmos 1536 2.7 05:48:34 10° S 05:52:33 82° W 05:56:35 10° N
CSL-04 Rocket 3.6 05:47:19 10° N 05:52:53 74° WNW 05:58:21 10° SSW
CSL-04 Debris 4.1 05:48:40 10° NNE 05:54:09 84° WNW 05:59:38 10° SSW
Cosmos 44 Rocket 3.3 05:49:02 10° SW 05:54:13 80° NW 05:59:22 10° NNE
IRS-1A Rocket 4.5 05:48:57 10° NNE 05:54:40 80° ESE 06:00:28 10° SSW
PAYLOAD A 4.4 05:51:16 10° NNE 05:56:39 77° ESE 06:02:04 10° S
Cosmos 1340 3.8 05:53:38 10° N 05:57:17 44° ENE 06:00:54 10° SSE
Cosmos 1603 4.1 05:57:59 10° SW 06:03:20 41° WNW 06:08:42 10° NNE
Cosmos 2369 Rocket 2.2 05:58:41 10° NNW 06:04:25 78° WSW 06:10:06 10° SSE
USA 229 DEB 4.4 05:58:53 10° SSW 06:05:35 59° ESE 06:12:24 10° NE
USA 229 4.4 05:59:00 10° SSW 06:05:42 58° ESE 06:12:30 10° NE
Cosmos 2056 Rocket 4.1 06:02:29 11° NW 06:06:54 34° W 06:11:27 10° SSW
SPOT 3 Rocket 4.2 06:01:59 10° NNE 06:07:05 59° ESE 06:12:08 10° S
Cosmos 2154 Rocket 4.2 06:03:10 10° SSW 06:09:07 48° WNW 06:15:07 10° N
Cosmos 1420 Rocket 4.5 06:05:31 10° NNW 06:10:45 63° ENE 06:15:55 10° SSE
Helios 1B rocket 2.5 06:11:20 10° SSE 06:15:30 85° ENE 06:19:39 10° NNW
Lacrosse 5 rocket 3.7 06:16:13 10° NNW 06:17:46 12° N 06:19:20 10° NNE
Kosmos-1675 4.1 06:16:57 10° SW 06:19:53 73° NW 06:32:00 10° NE
Ariane Rocket 3.7 06:18:13 10° N 06:22:37 31° WNW 06:27:00 10° SW
IDEFIX/ARIANE 42P 2.6 06:21:23 10° NNE 06:26:36 88° W 06:31:48 10° SSW
Meteor 1-29 2.9 06:25:11 10° SSE 06:28:33 85° WSW 06:31:56 10° NNW
Cosmos 1943 3.3 06:23:57 10° SW 06:29:27 54° WNW 06:35:00 10° NNE
SJ-7 4.4 06:28:44 10° N 06:32:55 73° WNW 06:37:01 10° SSW
YAOGAN 1 2.5 06:28:57 10° N 06:33:18 74° WNW 06:37:36 10° SSW
Cosmos 1975 3.7 06:31:06 10° S 06:35:06 56° E 06:39:08 10° NNE
USA 215 3.9 06:29:28 10° NE 06:35:20 37° NNW 06:41:11 10° W
